METEOR 2-5 DEB, 39605

Orbit data source: Space-Track

METEOR 2-5 DEB, 39605 is space debris in LEO originally from a launch on Wed, 31 Oct 1979 UTC launched from the Plesetsk Missile And Space Complex (PKMTR). Debris objects in space refer to the collection of defunct objects orbiting the Earth. Examples of debris include non-operational satellites, rocket bodies, and fragments generated from explosions, collisions, or faulty payload assembly.

Loading next visibility...
Identifier
39605, 1979-095CG
Orbit
LEO
Country
Flag of CISCIS
Related business
Manufacturer
Unknown
Mission
Spacecraft
Bus & Motor
Unknown
Mass
Unknown
Launch date (UTC)
1979-10-31 (47 years ago)
Launch vehicle
Unknown
Launch site
Plesetsk Missile And Space Complex (PKMTR)
Object type
Payload
Rocket body
Debris
Shape & HBR
Unknown shape, 0.1 m
Radar Cross Section
Small (<0.1 m²)

Expand to show TLE details & history
Last TLE update: 2 days ago

TLE from 2 days ago
0 METEOR 2-5 DEB
1 39605U 79095CG  26122.07876488  .00009206  00000-0  22547-2 0  9993
2 39605  81.1737 154.1307 0022719 108.7405 281.8942 14.52255177646019
Epoch: 2026-05-02T01:53Z
TLE epoch observation values (Epoch: 2026-05-02T01:53:25.285Z)
Latitude
30.03571°
Longitude
-89.10329°
Altitude
718.789 km
Speed
7.501 km/s
True Right ascension
10h 37m 00s
True Declination
29° 53' 10"
Sunlit
Object was in daylight at epoch
Visualization orbit readout
Latitude
Unknown
Longitude
Unknown
Altitude
Unknown
Speed
Unknown
Apparent Right ascension
Unknown
Apparent Declination
Unknown
Sunlit
N/A
Visualization observer readout
Local Sidereal Time
09:35:24
Azimuth
Unknown
Elevation
Unknown
Doppler factor
Unknown
Orbital elements
Apogee altitude
731.53 km
Perigee altitude
699.298 km
Semi-major axis
7,093.551 km
Eccentricity
0.00227
Inclination
81.1737°
RAAN
154.1307°
Arg. of periapsis
108.7405°
True anomaly
281.6393°
Mean anomaly
281.8942°
Eccentric anomaly
281.76677°
Mean motion
3.63285 °/min
Orbital period
99.1 mins
BSTAR
0.0022547
Loading maneuver chart data...
Computing Atmospheric mass density...

Documentation

Showing up to 5 results
|